Time,TemperatureF,DewpointF,PressureIn,WindDirection,WindDirectionDegrees,WindSpeedMPH,WindSpeedGustMPH,Humidity,HourlyPrecipIn,Conditions,Clouds,dailyrainin,SoftwareType,DateUTC
2013-09-28 00:01:00,69.3,61.8,29.99,South,176,1.5,4.0,77,0.00,,,0.00,VWS V14.01,2013-09-28 05:01:00,
2013-09-28 00:06:00,69.3,61.8,29.99,South,176,1.5,4.0,77,0.00,,,0.00,VWS V14.01,2013-09-28 05:06:00,
2013-09-28 00:11:00,69.3,61.8,29.99,ESE,105,1.5,4.0,77,0.00,,,0.00,VWS V14.01,2013-09-28 05:11:00,
2013-09-28 00:16:00,69.3,61.8,29.99,ESE,114,0.0,4.0,77,0.00,,,0.00,VWS V14.01,2013-09-28 05:16:00,
2013-09-28 00:21:00,69.4,61.9,29.99,SE,129,0.0,4.0,77,0.00,,,0.00,VWS V14.01,2013-09-28 05:21:00,
2013-09-28 00:26:00,69.4,61.9,29.98,SSE,161,3.0,4.0,77,0.00,,,0.00,VWS V14.01,2013-09-28 05:26:00,
2013-09-28 00:31:00,69.4,61.9,29.98,SE,135,1.5,4.0,77,0.00,,,0.00,VWS V14.01,2013-09-28 05:31:00,
2013-09-28 00:36:00,69.5,62.0,29.98,South,181,3.0,4.0,77,0.00,,,0.00,VWS V14.01,2013-09-28 05:36:00,
2013-09-28 00:41:00,69.7,61.8,29.98,East,101,1.5,5.0,76,0.00,,,0.00,VWS V14.01,2013-09-28 05:41:00,
2013-09-28 00:46:00,69.9,62.0,29.98,South,169,3.0,5.0,76,0.00,,,0.00,VWS V14.01,2013-09-28 05:46:00,
2013-09-28 00:51:00,69.9,62.0,29.97,SSE,165,1.5,5.0,76,0.00,,,0.00,VWS V14.01,2013-09-28 05:51:00,
2013-09-28 00:56:00,70.0,61.7,29.97,SE,146,4.5,5.0,75,0.00,,,0.00,VWS V14.01,2013-09-28 05:56:00,
2013-09-28 01:01:00,70.2,61.9,29.97,SE,146,6.0,6.0,75,0.00,,,0.00,VWS V14.01,2013-09-28 06:01:00,
2013-09-28 01:06:00,70.4,62.1,29.97,SE,125,4.5,5.0,75,0.00,,,0.00,VWS V14.01,2013-09-28 06:06:00,
2013-09-28 01:11:00,70.5,62.2,29.97,SSW,197,0.0,5.0,75,0.00,,,0.00,VWS V14.01,2013-09-28 06:11:00,
2013-09-28 01:16:00,70.7,62.0,29.97,South,169,3.0,8.0,74,0.00,,,0.00,VWS V14.01,2013-09-28 06:16:00,
2013-09-28 01:21:00,70.8,62.1,29.97,SSW,204,0.0,8.0,74,0.00,,,0.00,VWS V14.01,2013-09-28 06:21:00,
2013-09-28 01:26:00,70.9,62.2,29.97,South,175,1.5,8.0,74,0.00,,,0.00,VWS V14.01,2013-09-28 06:26:00,
2013-09-28 01:31:00,70.9,62.2,29.97,SSE,153,0.0,8.0,74,0.00,,,0.00,VWS V14.01,2013-09-28 06:31:00,
2013-09-28 01:36:00,70.9,62.2,29.97,ESE,110,4.5,8.0,74,0.00,,,0.00,VWS V14.01,2013-09-28 06:36:00,
2013-09-28 01:41:00,70.9,62.2,29.97,South,173,6.0,8.0,74,0.00,,,0.00,VWS V14.01,2013-09-28 06:41:00,
2013-09-28 01:46:00,70.8,62.5,29.97,South,191,3.0,8.0,75,0.00,,,0.00,VWS V14.01,2013-09-28 06:46:00,
2013-09-28 01:51:00,70.8,62.5,29.97,SSE,155,7.5,8.0,75,0.00,,,0.00,VWS V14.01,2013-09-28 06:51:00,
2013-09-28 01:56:00,70.7,62.4,29.97,South,177,1.5,8.0,75,0.00,,,0.00,VWS V14.01,2013-09-28 06:56:00,
2013-09-28 02:00:00,70.7,62.4,29.97,SSW,200,4.5,8.0,75,0.00,,,0.00,VWS V14.01,2013-09-28 07:00:00,
2013-09-28 02:01:00,70.7,62.4,29.97,South,187,3.0,6.0,75,0.00,,,0.00,VWS V14.01,2013-09-28 07:01:00,
2013-09-28 02:06:00,70.7,62.4,29.97,SSE,148,1.5,6.0,75,0.00,,,0.00,VWS V14.01,2013-09-28 07:06:00,
2013-09-28 02:11:00,70.5,62.6,29.97,South,177,4.5,6.0,76,0.00,,,0.00,VWS V14.01,2013-09-28 07:11:00,
2013-09-28 02:16:00,70.3,62.4,29.97,SE,129,6.0,6.0,76,0.00,,,0.00,VWS V14.01,2013-09-28 07:16:00,
2013-09-28 02:21:00,70.1,62.6,29.97,SW,228,4.5,6.0,77,0.00,,,0.00,VWS V14.01,2013-09-28 07:21:00,
2013-09-28 02:26:00,70.0,62.5,29.97,South,181,3.0,6.0,77,0.00,,,0.00,VWS V14.01,2013-09-28 07:26:00,
2013-09-28 02:31:00,70.0,62.5,29.97,SSE,160,3.0,6.0,77,0.00,,,0.00,VWS V14.01,2013-09-28 07:31:00,
2013-09-28 02:36:00,70.0,62.5,29.97,South,172,3.0,6.0,77,0.00,,,0.00,VWS V14.01,2013-09-28 07:36:00,
2013-09-28 02:41:00,70.1,62.6,29.96,SSE,159,3.0,8.0,77,0.00,,,0.00,VWS V14.01,2013-09-28 07:41:00,
2013-09-28 02:46:00,70.1,62.6,29.96,SSE,165,3.0,8.0,77,0.00,,,0.00,VWS V14.01,2013-09-28 07:46:00,
2013-09-28 02:51:00,70.3,62.4,29.96,SE,143,4.5,8.0,76,0.00,,,0.00,VWS V14.01,2013-09-28 07:51:00,
2013-09-28 02:56:00,70.3,62.4,29.96,South,188,6.0,8.0,76,0.00,,,0.00,VWS V14.01,2013-09-28 07:56:00,
2013-09-28 03:00:00,70.7,62.4,29.97,SSW,200,4.5,8.0,75,0.00,,,0.00,VWS V15.00,2013-09-28 08:00:00,
2013-09-28 03:01:00,70.3,62.4,29.96,SSW,195,3.0,8.0,76,0.00,,,0.00,VWS V14.01,2013-09-28 08:01:00,
2013-09-28 03:06:00,70.3,62.4,29.96,SSW,200,3.0,8.0,76,0.00,,,0.00,VWS V14.01,2013-09-28 08:06:00,
2013-09-28 03:11:00,70.5,62.6,29.96,SSE,152,4.5,8.0,76,0.00,,,0.00,VWS V14.01,2013-09-28 08:11:00,
2013-09-28 03:16:00,70.6,62.7,29.97,SW,226,0.0,8.0,76,0.00,,,0.00,VWS V14.01,2013-09-28 08:16:00,
2013-09-28 03:21:00,70.8,62.5,29.97,SSE,160,6.0,8.0,75,0.00,,,0.00,VWS V14.01,2013-09-28 08:21:00,
2013-09-28 03:26:00,70.9,62.6,29.97,SSE,149,3.0,8.0,75,0.00,,,0.00,VWS V14.01,2013-09-28 08:26:00,
2013-09-28 03:31:00,71.0,62.7,29.97,South,180,3.0,8.0,75,0.00,,,0.00,VWS V14.01,2013-09-28 08:31:00,
2013-09-28 03:36:00,71.2,62.5,29.97,South,190,0.0,8.0,74,0.00,,,0.00,VWS V14.01,2013-09-28 08:36:00,
2013-09-28 03:41:00,71.3,62.6,29.96,SSW,200,3.0,8.0,74,0.00,,,0.00,VWS V14.01,2013-09-28 08:41:00,
2013-09-28 03:45:00,71.4,62.7,29.96,South,174,0.0,8.0,74,0.00,,,0.00,VWS V14.01,2013-09-28 08:45:00,
2013-09-28 03:50:00,71.5,62.4,29.96,ESE,120,6.0,8.0,73,0.00,,,0.00,VWS V14.01,2013-09-28 08:50:00,
2013-09-28 03:55:00,71.6,62.5,29.96,SE,124,1.5,8.0,73,0.00,,,0.00,VWS V14.01,2013-09-28 08:55:00,
2013-09-28 04:00:00,71.6,62.5,29.96,South,174,3.0,6.0,73,0.00,,,0.00,VWS V14.01,2013-09-28 09:00:00,
2013-09-28 04:06:00,71.6,62.5,29.96,SSE,165,1.5,6.0,73,0.00,,,0.00,VWS V14.01,2013-09-28 09:06:00,
2013-09-28 04:11:00,71.5,62.4,29.96,South,170,1.5,6.0,73,0.00,,,0.00,VWS V14.01,2013-09-28 09:11:00,
2013-09-28 04:16:00,71.4,62.3,29.96,South,180,1.5,7.0,73,0.00,,,0.00,VWS V14.01,2013-09-28 09:16:00,
2013-09-28 04:21:00,71.4,62.7,29.96,ESE,115,1.5,7.0,74,0.00,,,0.00,VWS V14.01,2013-09-28 09:21:00,
2013-09-28 04:26:00,71.3,62.6,29.96,SSE,156,3.0,7.0,74,0.00,,,0.00,VWS V14.01,2013-09-28 09:26:00,
2013-09-28 04:31:00,71.4,62.3,29.96,SSW,194,6.0,8.0,73,0.00,,,0.00,VWS V14.01,2013-09-28 09:31:00,
2013-09-28 04:36:00,71.3,62.2,29.96,SSE,167,3.0,8.0,73,0.00,,,0.00,VWS V14.01,2013-09-28 09:36:00,
2013-09-28 04:40:00,71.2,62.5,29.96,SSW,198,1.5,8.0,74,0.00,,,0.00,VWS V14.01,2013-09-28 09:40:00,
2013-09-28 04:45:00,71.1,62.4,29.96,South,188,1.5,8.0,74,0.00,,,0.00,VWS V14.01,2013-09-28 09:45:00,
2013-09-28 04:50:00,71.0,62.3,29.96,SSE,163,1.5,8.0,74,0.00,,,0.00,VWS V14.01,2013-09-28 09:50:00,
2013-09-28 04:55:00,71.0,62.3,29.96,SSE,152,6.0,8.0,74,0.00,,,0.00,VWS V14.01,2013-09-28 09:55:00,
2013-09-28 05:00:00,71.0,62.3,29.97,South,189,4.5,8.0,74,0.00,,,0.00,VWS V14.01,2013-09-28 10:00:00,
2013-09-28 05:05:00,71.0,62.3,29.97,SE,138,1.5,8.0,74,0.00,,,0.00,VWS V14.01,2013-09-28 10:05:00,
2013-09-28 05:10:00,70.9,62.2,29.97,East,97,1.5,8.0,74,0.00,,,0.00,VWS V14.01,2013-09-28 10:10:00,
2013-09-28 05:15:00,70.8,62.5,29.97,SSE,162,1.5,8.0,75,0.00,,,0.00,VWS V14.01,2013-09-28 10:15:00,
2013-09-28 05:20:00,70.6,62.3,29.97,SSE,168,0.0,8.0,75,0.00,,,0.00,VWS V14.01,2013-09-28 10:20:00,
2013-09-28 05:25:00,70.6,62.3,29.97,South,176,1.5,8.0,75,0.00,,,0.00,VWS V14.01,2013-09-28 10:25:00,
2013-09-28 05:30:00,70.7,62.4,29.97,SSE,160,1.5,8.0,75,0.00,,,0.00,VWS V14.01,2013-09-28 10:30:00,
2013-09-28 05:35:00,70.8,62.1,29.97,SE,134,0.0,8.0,74,0.00,,,0.00,VWS V14.01,2013-09-28 10:35:00,
2013-09-28 05:40:00,71.1,62.4,29.97,SSW,211,3.0,8.0,74,0.00,,,0.00,VWS V14.01,2013-09-28 10:40:00,
2013-09-28 05:45:00,71.4,62.3,29.97,SSE,166,3.0,8.0,73,0.00,,,0.00,VWS V14.01,2013-09-28 10:45:00,
2013-09-28 05:50:00,71.6,62.1,29.97,SSE,159,4.5,8.0,72,0.00,,,0.00,VWS V14.01,2013-09-28 10:50:00,
2013-09-28 05:55:00,71.9,62.4,29.97,South,188,3.0,8.0,72,0.00,,,0.00,VWS V14.01,2013-09-28 10:55:00,
2013-09-28 06:00:00,72.2,62.3,29.98,SE,139,3.0,7.0,71,0.00,,,0.00,VWS V14.01,2013-09-28 11:00:00,
2013-09-28 06:05:00,72.6,62.7,29.98,South,174,1.5,9.0,71,0.00,,,0.00,VWS V14.01,2013-09-28 11:05:00,
2013-09-28 06:10:00,72.9,62.5,29.98,South,169,6.0,9.0,70,0.00,,,0.00,VWS V14.01,2013-09-28 11:10:00,
2013-09-28 06:15:00,73.2,62.8,29.98,SSE,168,1.5,9.0,70,0.00,,,0.00,VWS V14.01,2013-09-28 11:15:00,
2013-09-28 06:20:00,73.3,62.5,29.98,SSW,195,4.5,12.0,69,0.00,,,0.00,VWS V14.01,2013-09-28 11:20:00,
2013-09-28 06:25:00,73.5,62.7,29.98,SW,226,3.0,12.0,69,0.00,,,0.00,VWS V14.01,2013-09-28 11:25:00,
2013-09-28 06:30:00,73.6,62.8,29.98,SSW,202,1.5,12.0,69,0.00,,,0.00,VWS V14.01,2013-09-28 11:30:00,
2013-09-28 06:35:00,73.6,62.8,29.99,SE,131,3.0,12.0,69,0.00,,,0.00,VWS V14.01,2013-09-28 11:35:00,
2013-09-28 06:40:00,73.6,62.8,29.99,SSE,164,7.5,12.0,69,0.00,,,0.00,VWS V14.01,2013-09-28 11:40:00,
2013-09-28 06:45:00,73.6,62.8,29.99,SSW,210,6.0,12.0,69,0.00,,,0.00,VWS V14.01,2013-09-28 11:45:00,
2013-09-28 06:50:00,73.6,62.8,29.99,SSW,202,1.5,12.0,69,0.00,,,0.00,VWS V14.01,2013-09-28 11:50:00,
2013-09-28 06:55:00,73.5,62.7,29.99,SSW,195,3.0,12.0,69,0.00,,,0.00,VWS V14.01,2013-09-28 11:55:00,
2013-09-28 07:00:00,73.5,62.7,29.99,SSW,197,4.5,12.0,69,0.00,,,0.00,VWS V14.01,2013-09-28 12:00:00,
2013-09-28 07:05:00,73.5,62.7,29.99,SSE,165,7.5,12.0,69,0.00,,,0.00,VWS V14.01,2013-09-28 12:05:00,
2013-09-28 07:10:00,73.5,63.1,29.99,South,179,10.5,12.0,70,0.00,,,0.00,VWS V14.01,2013-09-28 12:10:00,
2013-09-28 07:15:00,73.4,63.0,30.00,SW,224,0.0,12.0,70,0.00,,,0.00,VWS V14.01,2013-09-28 12:15:00,
2013-09-28 07:20:00,73.5,63.1,30.00,SE,142,9.0,12.0,70,0.00,,,0.00,VWS V14.01,2013-09-28 12:20:00,
2013-09-28 07:25:00,73.5,63.1,30.00,SSW,207,3.0,12.0,70,0.00,,,0.00,VWS V14.01,2013-09-28 12:25:00,
2013-09-28 07:30:00,73.5,63.1,30.00,SSE,166,3.0,12.0,70,0.00,,,0.00,VWS V14.01,2013-09-28 12:30:00,
2013-09-28 07:35:00,73.5,63.1,30.00,SE,134,6.0,12.0,70,0.00,,,0.00,VWS V14.01,2013-09-28 12:35:00,
2013-09-28 07:40:00,73.4,63.0,30.00,South,174,3.0,12.0,70,0.00,,,0.00,VWS V14.01,2013-09-28 12:40:00,
2013-09-28 07:45:00,73.4,63.0,30.00,WSW,239,1.5,12.0,70,0.00,,,0.00,VWS V14.01,2013-09-28 12:45:00,
2013-09-28 07:50:00,73.4,63.0,30.00,SW,236,1.5,12.0,70,0.00,,,0.00,VWS V14.01,2013-09-28 12:50:00,
2013-09-28 07:55:00,73.4,63.0,30.00,SSE,148,4.5,12.0,70,0.00,,,0.00,VWS V14.01,2013-09-28 12:55:00,
2013-09-28 08:00:00,73.5,63.1,29.99,South,190,19.5,19.5,70,0.00,,,0.00,VWS V14.01,2013-09-28 13:00:00,
2013-09-28 08:05:00,73.6,63.2,29.99,SSW,194,4.5,14.0,70,0.00,,,0.00,VWS V14.01,2013-09-28 13:05:00,
2013-09-28 08:10:00,73.7,63.3,29.99,ESE,120,4.5,14.0,70,0.00,,,0.00,VWS V14.01,2013-09-28 13:10:00,
2013-09-28 08:15:00,73.8,63.4,30.00,SSE,155,7.5,14.0,70,0.00,,,0.00,VWS V14.01,2013-09-28 13:15:00,
2013-09-28 08:20:00,73.9,63.9,30.00,SE,142,10.5,14.0,71,0.00,,,0.00,VWS V14.01,2013-09-28 13:20:00,
2013-09-28 08:25:00,73.9,63.5,30.00,South,186,12.0,14.0,70,0.00,,,0.00,VWS V14.01,2013-09-28 13:25:00,
2013-09-28 08:30:00,74.0,63.6,30.00,South,191,10.5,14.0,70,0.00,,,0.00,VWS V14.01,2013-09-28 13:30:00,
2013-09-28 08:35:00,74.0,64.0,30.01,ESE,113,3.0,14.0,71,0.00,,,0.00,VWS V14.01,2013-09-28 13:35:00,
2013-09-28 08:40:00,73.9,63.9,30.01,SSW,211,0.0,14.0,71,0.00,,,0.00,VWS V14.01,2013-09-28 13:40:00,
2013-09-28 08:45:00,73.9,63.9,30.01,South,191,3.0,14.0,71,0.00,,,0.00,VWS V14.01,2013-09-28 13:45:00,
2013-09-28 08:50:00,73.9,63.9,30.01,SSE,158,3.0,14.0,71,0.00,,,0.00,VWS V14.01,2013-09-28 13:50:00,
2013-09-28 08:55:00,73.9,63.9,30.01,SW,218,4.5,14.0,71,0.00,,,0.00,VWS V14.01,2013-09-28 13:55:00,
2013-09-28 09:00:00,74.0,64.0,30.01,SSW,206,4.5,14.0,71,0.00,,,0.00,VWS V14.01,2013-09-28 14:00:00,
2013-09-28 09:05:00,74.1,64.1,30.01,SW,215,10.5,14.0,71,0.00,,,0.00,VWS V14.01,2013-09-28 14:05:00,
2013-09-28 09:10:00,74.1,64.1,30.01,SSE,162,3.0,14.0,71,0.00,,,0.00,VWS V14.01,2013-09-28 14:10:00,
2013-09-28 09:15:00,74.2,64.2,30.02,SSE,160,6.0,14.0,71,0.00,,,0.00,VWS V14.01,2013-09-28 14:15:00,
2013-09-28 09:20:00,74.3,64.3,30.02,SSE,155,3.0,14.0,71,0.00,,,0.00,VWS V14.01,2013-09-28 14:20:00,
2013-09-28 09:25:00,74.4,64.4,30.02,SSE,165,4.5,14.0,71,0.00,,,0.00,VWS V14.01,2013-09-28 14:25:00,
2013-09-28 09:30:00,74.6,64.6,30.02,SSW,208,12.0,14.0,71,0.00,,,0.00,VWS V14.01,2013-09-28 14:30:00,
2013-09-28 09:35:00,74.7,64.7,30.01,South,183,4.5,14.0,71,0.00,,,0.00,VWS V14.01,2013-09-28 14:35:00,
2013-09-28 09:40:00,75.2,65.2,30.01,South,180,3.0,14.0,71,0.00,,,0.00,VWS V14.01,2013-09-28 14:40:00,
2013-09-28 09:45:00,76.0,65.5,30.01,SSW,195,1.5,14.0,70,0.00,,,0.00,VWS V14.01,2013-09-28 14:45:00,
2013-09-28 09:50:00,76.2,65.3,30.01,SSW,195,1.5,16.0,69,0.00,,,0.00,VWS V14.01,2013-09-28 14:50:00,
2013-09-28 09:55:00,76.2,65.3,30.01,South,186,7.5,16.0,69,0.00,,,0.00,VWS V14.01,2013-09-28 14:55:00,
2013-09-28 10:00:00,76.1,65.2,30.01,SE,132,18.0,18.0,69,0.00,,,0.00,VWS V14.01,2013-09-28 15:00:00,
2013-09-28 10:05:00,76.0,65.5,30.01,SW,215,4.5,12.0,70,0.00,,,0.00,VWS V14.01,2013-09-28 15:05:00,
2013-09-28 10:10:00,76.6,65.7,30.01,South,170,21.0,21.0,69,0.00,,,0.00,VWS V14.01,2013-09-28 15:10:00,
2013-09-28 10:21:00,77.2,65.8,30.02,SSE,166,6.0,6.0,68,0.00,,,0.00,VWS V14.01,2013-09-28 15:21:00,
2013-09-28 10:26:00,77.2,66.2,30.02,SSE,148,16.5,16.5,69,0.00,,,0.00,VWS V14.01,2013-09-28 15:26:00,
2013-09-28 10:31:00,77.1,66.2,30.02,SSW,206,1.5,13.0,69,0.00,,,0.00,VWS V14.01,2013-09-28 15:31:00,
2013-09-28 10:35:00,77.1,66.2,30.02,SW,235,4.5,13.0,69,0.00,,,0.00,VWS V14.01,2013-09-28 15:35:00,
2013-09-28 10:40:00,77.7,66.7,30.02,SSE,167,12.0,17.0,69,0.00,,,0.00,VWS V14.01,2013-09-28 15:40:00,
2013-09-28 10:45:00,78.7,66.8,30.02,SSE,156,12.0,17.0,67,0.00,,,0.00,VWS V14.01,2013-09-28 15:45:00,
2013-09-28 10:50:00,78.9,67.0,30.02,SSW,207,9.0,17.0,67,0.00,,,0.00,VWS V14.01,2013-09-28 15:50:00,
2013-09-28 10:55:00,79.2,67.3,30.02,SSE,163,13.5,17.0,67,0.00,,,0.00,VWS V14.01,2013-09-28 15:55:00,
2013-09-28 11:00:00,79.2,67.7,30.02,SSE,164,1.5,17.0,68,0.00,,,0.00,VWS V14.01,2013-09-28 16:00:00,
2013-09-28 11:05:00,79.9,67.1,30.02,WSW,238,15.0,17.0,65,0.00,,,0.00,VWS V14.01,2013-09-28 16:05:00,
2013-09-28 11:10:00,80.0,66.7,30.03,South,169,15.0,17.0,64,0.00,,,0.00,VWS V14.01,2013-09-28 16:10:00,
2013-09-28 11:15:00,79.7,66.9,30.02,SW,217,4.5,17.0,65,0.00,,,0.00,VWS V14.01,2013-09-28 16:15:00,
2013-09-28 11:20:00,79.5,67.2,30.02,South,174,6.0,17.0,66,0.00,,,0.00,VWS V14.01,2013-09-28 16:20:00,
2013-09-28 11:25:00,79.5,66.7,30.02,South,179,4.5,17.0,65,0.00,,,0.00,VWS V14.01,2013-09-28 16:25:00,
2013-09-28 11:30:00,79.8,67.0,30.01,SSE,150,6.0,17.0,65,0.00,,,0.00,VWS V14.01,2013-09-28 16:30:00,
2013-09-28 11:35:00,80.2,67.4,30.01,ESE,117,6.0,17.0,65,0.00,,,0.00,VWS V14.01,2013-09-28 16:35:00,
2013-09-28 11:40:00,80.3,67.0,30.02,SSW,211,4.5,17.0,64,0.00,,,0.00,VWS V14.01,2013-09-28 16:40:00,
2013-09-28 11:45:00,80.1,67.7,30.02,SSE,160,3.0,17.0,66,0.00,,,0.00,VWS V14.01,2013-09-28 16:45:00,
2013-09-28 11:50:00,80.0,67.2,30.02,South,169,4.5,17.0,65,0.00,,,0.00,VWS V14.01,2013-09-28 16:50:00,
2013-09-28 11:55:00,80.1,67.3,30.01,SSW,202,18.0,18.0,65,0.00,,,0.00,VWS V14.01,2013-09-28 16:55:00,
2013-09-28 12:00:00,80.0,67.6,30.02,SSW,197,3.0,6.0,66,0.00,,,0.00,VWS V14.01,2013-09-28 17:00:00,
2013-09-28 12:05:00,80.5,68.1,30.01,South,181,4.5,7.0,66,0.00,,,0.00,VWS V14.01,2013-09-28 17:05:00,
2013-09-28 12:10:00,80.7,67.8,30.01,South,169,9.0,13.0,65,0.00,,,0.00,VWS V14.01,2013-09-28 17:10:00,
2013-09-28 12:15:00,80.5,67.2,30.02,SSW,211,10.5,14.0,64,0.00,,,0.00,VWS V14.01,2013-09-28 17:15:00,
2013-09-28 12:20:00,80.3,67.5,30.01,South,186,9.0,14.0,65,0.00,,,0.00,VWS V14.01,2013-09-28 17:20:00,
2013-09-28 12:25:00,80.5,67.7,30.01,WSW,242,1.5,14.0,65,0.00,,,0.00,VWS V14.01,2013-09-28 17:25:00,
2013-09-28 12:30:00,80.8,68.4,30.01,SSE,160,4.5,14.0,66,0.00,,,0.00,VWS V14.01,2013-09-28 17:30:00,
2013-09-28 12:35:00,81.2,68.3,30.01,SSW,198,13.5,14.0,65,0.00,,,0.00,VWS V14.01,2013-09-28 17:35:00,
2013-09-28 12:40:00,81.2,68.3,30.01,South,173,6.0,14.0,65,0.00,,,0.00,VWS V14.01,2013-09-28 17:40:00,
2013-09-28 12:45:00,81.1,68.2,30.01,SSE,162,9.0,14.0,65,0.00,,,0.00,VWS V14.01,2013-09-28 17:45:00,
2013-09-28 12:50:00,81.2,68.8,30.00,SSE,155,13.5,14.0,66,0.00,,,0.00,VWS V14.01,2013-09-28 17:50:00,
2013-09-28 12:55:00,81.6,68.7,30.00,SSW,205,6.0,14.0,65,0.00,,,0.00,VWS V14.01,2013-09-28 17:55:00,
2013-09-28 13:00:00,81.5,68.6,30.01,South,169,3.0,14.0,65,0.00,,,0.00,VWS V14.01,2013-09-28 18:00:00,
2013-09-28 13:05:00,81.1,68.7,30.00,SW,214,1.5,14.0,66,0.00,,,0.00,VWS V14.01,2013-09-28 18:05:00,
2013-09-28 13:10:00,81.0,69.0,30.00,SE,129,16.5,16.5,67,0.00,,,0.00,VWS V14.01,2013-09-28 18:10:00,
2013-09-28 13:15:00,81.0,68.6,30.00,SW,221,3.0,14.0,66,0.00,,,0.00,VWS V14.01,2013-09-28 18:15:00,
2013-09-28 13:20:00,80.7,68.7,30.00,SSE,156,3.0,14.0,67,0.00,,,0.00,VWS V14.01,2013-09-28 18:20:00,
2013-09-28 13:25:00,80.2,68.3,30.00,SSE,160,4.5,14.0,67,0.00,,,0.00,VWS V14.01,2013-09-28 18:25:00,
2013-09-28 13:30:00,80.0,68.5,30.00,SW,219,1.5,14.0,68,0.00,,,0.00,VWS V14.01,2013-09-28 18:30:00,
2013-09-28 13:35:00,79.9,68.8,30.00,SE,139,3.0,15.0,69,0.00,,,0.00,VWS V14.01,2013-09-28 18:35:00,
2013-09-28 13:40:00,79.9,68.8,30.00,South,169,1.5,15.0,69,0.00,,,0.00,VWS V14.01,2013-09-28 18:40:00,
2013-09-28 13:45:00,79.7,68.2,30.00,SSE,155,1.5,15.0,68,0.00,,,0.00,VWS V14.01,2013-09-28 18:45:00,
2013-09-28 13:50:00,79.5,68.4,30.00,SW,224,1.5,15.0,69,0.00,,,0.00,VWS V14.01,2013-09-28 18:50:00,
2013-09-28 13:55:00,78.4,68.6,30.01,NW,318,10.5,15.0,72,0.00,,,0.00,VWS V14.01,2013-09-28 18:55:00,
2013-09-28 14:00:00,75.0,68.1,30.01,NW,311,7.5,9.0,79,0.00,,,0.00,VWS V14.01,2013-09-28 19:00:00,
2013-09-28 14:05:00,72.6,67.8,30.02,North,8,3.0,8.0,85,0.00,,,0.00,VWS V14.01,2013-09-28 19:05:00,
2013-09-28 14:11:00,71.1,67.7,30.02,NNE,27,1.5,1.5,89,0.02,,,0.02,VWS V14.01,2013-09-28 19:11:00,
2013-09-28 14:16:00,70.1,67.7,30.02,NW,325,3.0,11.0,92,0.04,,,0.04,VWS V14.01,2013-09-28 19:16:00,
2013-09-28 14:21:00,69.6,67.5,30.02,NNW,345,6.0,11.0,93,0.10,,,0.10,VWS V14.01,2013-09-28 19:21:00,
2013-09-28 14:26:00,69.0,67.2,30.02,NNE,25,1.5,11.0,94,0.17,,,0.17,VWS V14.01,2013-09-28 19:26:00,
2013-09-28 14:31:00,68.6,67.1,30.02,NW,311,9.0,11.0,95,0.22,,,0.22,VWS V14.01,2013-09-28 19:31:00,
2013-09-28 14:36:00,68.2,66.7,30.03,NW,315,1.5,11.0,95,0.32,,,0.32,VWS V14.01,2013-09-28 19:36:00,
2013-09-28 14:41:00,68.0,66.8,30.03,NW,310,0.0,11.0,96,0.37,,,0.37,VWS V14.01,2013-09-28 19:41:00,
2013-09-28 14:46:00,67.9,66.7,30.03,North,360,0.0,11.0,96,0.48,,,0.48,VWS V14.01,2013-09-28 19:46:00,
2013-09-28 14:51:00,67.7,66.5,30.03,NW,326,0.0,11.0,96,0.52,,,0.52,VWS V14.01,2013-09-28 19:51:00,
2013-09-28 15:00:00,76.1,68.4,30.01,North,1,9.0,15.0,77,0.00,,,0.00,VWS V15.00,2013-09-28 20:00:00,
2013-09-28 15:45:00,68.0,67.4,30.01,SE,136,3.0,3.0,98,1.11,,,1.11,VWS V14.01,2013-09-28 20:45:00,
2013-09-28 15:50:00,68.1,67.5,30.00,SE,131,0.0,2.0,98,1.11,,,1.11,VWS V14.01,2013-09-28 20:50:00,
2013-09-28 15:55:00,68.1,67.5,30.00,East,80,1.5,2.0,98,1.11,,,1.11,VWS V14.01,2013-09-28 20:55:00,
2013-09-28 16:00:00,68.2,67.6,30.00,SSE,154,0.0,0.0,98,0.00,,,1.11,VWS V14.01,2013-09-28 21:00:00,
2013-09-28 16:05:00,68.3,67.7,30.00,SSE,152,0.0,0.0,98,0.01,,,1.12,VWS V14.01,2013-09-28 21:05:00,
2013-09-28 16:10:00,68.5,67.9,30.00,ESE,122,0.0,1.0,98,0.01,,,1.12,VWS V14.01,2013-09-28 21:10:00,
2013-09-28 16:15:00,68.4,67.8,30.00,South,180,1.5,2.0,98,0.01,,,1.12,VWS V14.01,2013-09-28 21:15:00,
2013-09-28 16:20:00,68.5,67.6,30.00,SSE,164,0.0,3.0,97,0.01,,,1.12,VWS V14.01,2013-09-28 21:20:00,
2013-09-28 16:25:00,68.6,67.7,29.99,South,171,0.0,4.0,97,0.01,,,1.12,VWS V14.01,2013-09-28 21:25:00,
2013-09-28 16:30:00,68.9,68.3,29.99,ESE,117,0.0,4.0,98,0.01,,,1.12,VWS V14.01,2013-09-28 21:30:00,
2013-09-28 16:35:00,69.0,68.1,29.98,SSE,164,0.0,4.0,97,0.01,,,1.12,VWS V14.01,2013-09-28 21:35:00,
2013-09-28 16:40:00,69.0,67.8,29.98,South,173,1.5,4.0,96,0.01,,,1.12,VWS V14.01,2013-09-28 21:40:00,
2013-09-28 16:45:00,69.2,68.3,29.98,SSW,204,3.0,4.0,97,0.01,,,1.12,VWS V14.01,2013-09-28 21:45:00,
2013-09-28 16:50:00,69.2,68.3,29.98,SE,129,0.0,4.0,97,0.01,,,1.12,VWS V14.01,2013-09-28 21:50:00,
2013-09-28 16:55:00,69.3,68.1,29.98,East,89,0.0,4.0,96,0.01,,,1.12,VWS V14.01,2013-09-28 21:55:00,
2013-09-28 17:00:00,69.2,68.0,29.97,SE,142,0.0,4.0,96,0.01,,,1.12,VWS V14.01,2013-09-28 22:00:00,
2013-09-28 17:05:00,69.2,68.3,29.97,ENE,73,1.5,4.0,97,0.01,,,1.12,VWS V14.01,2013-09-28 22:05:00,
2013-09-28 17:10:00,69.0,67.8,29.96,East,90,0.0,4.0,96,0.02,,,1.13,VWS V14.01,2013-09-28 22:10:00,
2013-09-28 17:15:00,68.8,67.6,29.97,SE,142,0.0,4.0,96,0.02,,,1.13,VWS V14.01,2013-09-28 22:15:00,
2013-09-28 17:20:00,68.8,67.9,29.97,East,93,1.5,4.0,97,0.02,,,1.13,VWS V14.01,2013-09-28 22:20:00,
2013-09-28 17:25:00,68.7,67.5,29.97,SE,139,0.0,4.0,96,0.02,,,1.13,VWS V14.01,2013-09-28 22:25:00,
2013-09-28 17:30:00,68.7,67.8,29.98,ESE,111,0.0,4.0,97,0.02,,,1.13,VWS V14.01,2013-09-28 22:30:00,
2013-09-28 17:35:00,68.8,67.9,29.98,SW,229,0.0,4.0,97,0.02,,,1.13,VWS V14.01,2013-09-28 22:35:00,
2013-09-28 17:40:00,68.9,68.0,29.99,SW,229,0.0,4.0,97,0.02,,,1.13,VWS V14.01,2013-09-28 22:40:00,
2013-09-28 17:45:00,69.0,68.1,29.99,SW,229,0.0,4.0,97,0.02,,,1.13,VWS V14.01,2013-09-28 22:45:00,
2013-09-28 17:50:00,69.0,68.1,29.99,NW,305,0.0,4.0,97,0.02,,,1.13,VWS V14.01,2013-09-28 22:50:00,
2013-09-28 17:55:00,68.9,68.0,29.99,NW,304,0.0,4.0,97,0.02,,,1.13,VWS V14.01,2013-09-28 22:55:00,
2013-09-28 18:00:00,68.7,67.8,30.00,NW,304,0.0,0.0,97,0.00,,,1.13,VWS V14.01,2013-09-28 23:00:00,
2013-09-28 18:05:00,68.8,68.2,29.99,North,5,0.0,1.0,98,0.01,,,1.14,VWS V14.01,2013-09-28 23:05:00,
2013-09-28 18:10:00,68.8,67.9,30.00,North,5,0.0,1.0,97,0.01,,,1.14,VWS V14.01,2013-09-28 23:10:00,
2013-09-28 18:15:00,68.8,68.2,30.00,North,4,0.0,1.0,98,0.01,,,1.14,VWS V14.01,2013-09-28 23:15:00,
2013-09-28 18:20:00,68.7,68.1,30.00,North,5,0.0,1.0,98,0.01,,,1.14,VWS V14.01,2013-09-28 23:20:00,
2013-09-28 18:25:00,68.6,68.0,30.00,NW,320,0.0,2.0,98,0.01,,,1.14,VWS V14.01,2013-09-28 23:25:00,
2013-09-28 18:30:00,68.6,68.0,30.00,NW,320,0.0,2.0,98,0.01,,,1.14,VWS V14.01,2013-09-28 23:30:00,
2013-09-28 18:35:00,68.6,68.0,30.01,NW,321,0.0,2.0,98,0.01,,,1.14,VWS V14.01,2013-09-28 23:35:00,
2013-09-28 18:40:00,68.6,68.0,30.01,NW,320,0.0,2.0,98,0.01,,,1.14,VWS V14.01,2013-09-28 23:40:00,
2013-09-28 18:48:00,68.6,68.0,30.02,NW,321,0.0,0.0,98,0.01,,,1.14,VWS V14.01,2013-09-28 23:48:00,
2013-09-28 18:53:00,68.6,68.0,30.02,NW,320,0.0,0.0,98,0.01,,,1.14,VWS V14.01,2013-09-28 23:53:00,
2013-09-28 18:58:00,68.6,68.0,30.02,NW,321,0.0,0.0,98,0.01,,,1.14,VWS V14.01,2013-09-28 23:58:00,
2013-09-28 19:00:00,68.7,67.8,29.99,NW,305,0.0,4.0,97,0.02,,,1.13,VWS V15.00,2013-09-29 00:00:00,
2013-09-28 19:03:00,68.6,68.0,30.02,NW,321,0.0,0.0,98,0.01,,,1.14,VWS V14.01,2013-09-29 00:03:00,
2013-09-28 19:08:00,68.6,68.0,30.02,NW,321,0.0,0.0,98,0.01,,,1.14,VWS V14.01,2013-09-29 00:08:00,
2013-09-28 19:17:00,68.0,66.8,30.02,WNW,301,1.5,1.5,96,0.00,,,1.14,VWS V14.01,2013-09-29 00:17:00,
2013-09-28 20:13:00,63.7,63.1,30.05,NW,323,1.5,1.5,98,0.00,,,1.14,VWS V14.01,2013-09-29 01:13:00,
2013-09-28 20:18:00,63.7,63.1,30.05,North,9,1.5,3.0,98,0.01,,,1.14,VWS V14.01,2013-09-29 01:18:00,
2013-09-28 20:23:00,63.5,62.9,30.05,North,9,3.0,6.0,98,0.01,,,1.14,VWS V14.01,2013-09-29 01:23:00,
2013-09-28 20:28:00,63.3,62.7,30.05,NNE,28,0.0,6.0,98,0.01,,,1.14,VWS V14.01,2013-09-29 01:28:00,
2013-09-28 20:33:00,63.2,62.6,30.05,NNW,331,6.0,6.0,98,0.01,,,1.14,VWS V14.01,2013-09-29 01:33:00,
2013-09-28 20:38:00,63.1,62.5,30.05,North,3,7.5,7.5,98,0.01,,,1.14,VWS V14.01,2013-09-29 01:38:00,
2013-09-28 20:43:00,62.9,62.3,30.05,WNW,300,1.5,6.0,98,0.01,,,1.14,VWS V14.01,2013-09-29 01:43:00,
2013-09-28 20:48:00,62.8,61.9,30.05,NNW,335,3.0,6.0,97,0.01,,,1.14,VWS V14.01,2013-09-29 01:48:00,
2013-09-28 20:53:00,62.7,62.1,30.06,NNE,33,1.5,6.0,98,0.01,,,1.14,VWS V14.01,2013-09-29 01:53:00,
2013-09-28 20:58:00,62.6,62.0,30.06,NNW,340,1.5,6.0,98,0.01,,,1.14,VWS V14.01,2013-09-29 01:58:00,
2013-09-28 21:03:00,62.6,62.0,30.05,North,8,1.5,6.0,98,0.01,,,1.14,VWS V14.01,2013-09-29 02:03:00,
2013-09-28 21:08:00,62.5,61.9,30.05,North,6,3.0,6.0,98,0.01,,,1.14,VWS V14.01,2013-09-29 02:08:00,
2013-09-28 21:13:00,62.4,61.8,30.06,ENE,57,6.0,6.0,98,0.01,,,1.14,VWS V14.01,2013-09-29 02:13:00,
2013-09-28 21:18:00,62.4,61.8,30.05,WNW,293,3.0,6.0,98,0.01,,,1.14,VWS V14.01,2013-09-29 02:18:00,
2013-09-28 21:23:00,62.4,61.8,30.06,North,11,0.0,6.0,98,0.01,,,1.14,VWS V14.01,2013-09-29 02:23:00,
2013-09-28 21:28:00,62.3,61.7,30.06,North,360,0.0,6.0,98,0.01,,,1.14,VWS V14.01,2013-09-29 02:28:00,
2013-09-28 21:33:00,62.3,61.7,30.06,NNW,338,1.5,6.0,98,0.01,,,1.14,VWS V14.01,2013-09-29 02:33:00,
2013-09-28 21:38:00,62.3,62.0,30.06,NNE,12,1.5,6.0,99,0.01,,,1.14,VWS V14.01,2013-09-29 02:38:00,
2013-09-28 21:43:00,62.3,62.0,30.07,NNE,26,1.5,6.0,99,0.01,,,1.14,VWS V14.01,2013-09-29 02:43:00,
2013-09-28 21:48:00,62.3,62.0,30.07,NE,37,3.0,6.0,99,0.01,,,1.14,VWS V14.01,2013-09-29 02:48:00,
2013-09-28 21:53:00,62.3,62.0,30.07,NW,311,1.5,6.0,99,0.01,,,1.14,VWS V14.01,2013-09-29 02:53:00,
2013-09-28 21:58:00,62.3,62.0,30.07,North,353,0.0,6.0,99,0.01,,,1.14,VWS V14.01,2013-09-29 02:58:00,
2013-09-28 22:00:00,62.3,62.0,30.07,NW,325,4.5,6.0,99,0.01,,,1.14,VWS V14.01,2013-09-29 03:00:00,
2013-09-28 22:03:00,62.4,62.1,30.07,NNW,338,1.5,3.0,99,0.00,,,1.14,VWS V14.01,2013-09-29 03:03:00,
2013-09-28 22:08:00,62.4,62.1,30.07,NNE,26,1.5,5.0,99,0.00,,,1.14,VWS V14.01,2013-09-29 03:08:00,
2013-09-28 22:13:00,62.4,62.1,30.07,NNW,332,0.0,5.0,99,0.00,,,1.14,VWS V14.01,2013-09-29 03:13:00,
2013-09-28 22:18:00,62.4,61.8,30.07,NE,39,0.0,5.0,98,0.00,,,1.14,VWS V14.01,2013-09-29 03:18:00,
2013-09-28 22:23:00,62.4,61.8,30.08,NE,43,0.0,5.0,98,0.00,,,1.14,VWS V14.01,2013-09-29 03:23:00,
2013-09-28 22:28:00,62.4,61.8,30.08,North,4,1.5,5.0,98,0.00,,,1.14,VWS V14.01,2013-09-29 03:28:00,
2013-09-28 22:33:00,62.4,61.8,30.08,NNW,348,0.0,5.0,98,0.00,,,1.14,VWS V14.01,2013-09-29 03:33:00,
2013-09-28 22:38:00,62.3,61.7,30.08,WNW,291,0.0,5.0,98,0.00,,,1.14,VWS V14.01,2013-09-29 03:38:00,
2013-09-28 22:43:00,62.3,61.7,30.08,NNE,13,1.5,5.0,98,0.00,,,1.14,VWS V14.01,2013-09-29 03:43:00,
2013-09-28 22:48:00,62.2,61.6,30.08,NW,313,3.0,5.0,98,0.00,,,1.14,VWS V14.01,2013-09-29 03:48:00,
2013-09-28 22:53:00,62.2,61.6,30.08,NNW,340,1.5,5.0,98,0.00,,,1.14,VWS V14.01,2013-09-29 03:53:00,
2013-09-28 22:59:00,62.2,61.6,30.08,North,359,3.0,5.0,98,0.00,,,1.14,VWS V14.01,2013-09-29 03:59:00,
2013-09-28 23:00:00,62.3,62.0,30.07,NW,325,4.5,6.0,99,0.01,,,1.14,VWS V15.00,2013-09-29 04:00:00,
2013-09-28 23:01:00,62.2,61.6,30.08,NW,316,3.0,5.0,98,0.00,,,1.14,VWS V14.01,2013-09-29 04:01:00,
2013-09-28 23:06:00,62.1,61.5,30.08,North,9,3.0,5.0,98,0.00,,,1.14,VWS V14.01,2013-09-29 04:06:00,
2013-09-28 23:11:00,62.1,61.5,30.08,ENE,57,1.5,5.0,98,0.00,,,1.14,VWS V14.01,2013-09-29 04:11:00,
2013-09-28 23:16:00,62.2,61.6,30.08,West,262,0.0,5.0,98,0.00,,,1.14,VWS V14.01,2013-09-29 04:16:00,
2013-09-28 23:21:00,62.2,61.6,30.08,WNW,291,1.5,5.0,98,0.00,,,1.14,VWS V14.01,2013-09-29 04:21:00,
2013-09-28 23:26:00,62.1,61.5,30.08,NNW,347,1.5,5.0,98,0.00,,,1.14,VWS V14.01,2013-09-29 04:26:00,
2013-09-28 23:31:00,62.1,61.5,30.08,NW,310,1.5,5.0,98,0.00,,,1.14,VWS V14.01,2013-09-29 04:31:00,
2013-09-28 23:36:00,62.1,61.5,30.08,NNW,327,0.0,5.0,98,0.00,,,1.14,VWS V14.01,2013-09-29 04:36:00,
2013-09-28 23:41:00,62.0,61.4,30.08,NNW,328,0.0,5.0,98,0.00,,,1.14,VWS V14.01,2013-09-29 04:41:00,
2013-09-28 23:46:00,62.1,61.5,30.08,NNW,329,0.0,5.0,98,0.00,,,1.14,VWS V14.01,2013-09-29 04:46:00,
2013-09-28 23:51:00,62.1,61.5,30.08,North,352,0.0,5.0,98,0.00,,,1.14,VWS V14.01,2013-09-29 04:51:00,
2013-09-28 23:56:00,62.0,61.4,30.09,NW,319,0.0,5.0,98,0.00,,,1.14,VWS V14.01,2013-09-29 04:56:00,